KC2TER Weather Reports


Display with metric or nautical units.
time (UTC)temp
F
wind
direction
speed
MPH
gust
MPH
rain 1hr
in
rain 24hr
in
rain mn
in
humidity
%
barometer
mb
20260506192341 65 89 3.0 9.0 0.00 0.00 0.00 86 1007.6
20260506191838 64 104 1.0 14.0 0.00 0.00 0.00 87 1007.6
20260506191334 65 99 3.0 9.0 0.00 0.00 0.00 86 1007.6
20260506190832 64 49 4.0 6.0 0.00 0.00 0.00 88 1007.6
20260506190328 64 158 5.0 7.0 0.00 0.00 0.00 91 1007.7
20260506185825 64 108 4.0 13.0 0.00 0.00 0.00 89 1007.9
20260506185322 65 97 3.0 13.0 0.00 0.00 0.00 87 1007.8
20260506184819 65 103 2.0 3.0 0.00 0.00 0.00 88 1007.8
20260506184316 66 110 1.0 2.0 0.00 0.00 0.00 85 1007.6
20260506183813 66 102 1.0 1.0 0.00 0.00 0.00 84 1007.5
20260506183308 66 101 0.0 2.0 0.00 0.00 0.00 83 1007.5
20260506182806 66 107 1.0 2.0 0.00 0.00 0.00 84 1007.8
20260506182306 65 104 1.0 1.0 0.00 0.00 0.00 85 1007.6
20260506181801 65 94 1.0 3.0 0.00 0.00 0.00 85 1007.8
20260506181258 65 105 0.0 3.0 0.00 0.00 0.00 85 1007.7
20260506180755 66 105 1.0 5.0 0.00 0.00 0.00 85 1008.0
20260506180251 65 108 1.0 2.0 0.00 0.00 0.00 86 1007.9
20260506175747 64 108 1.0 2.0 0.00 0.00 0.00 87 1008.1
20260506175244 64 104 3.0 6.0 0.00 0.00 0.00 87 1008.3
20260506174742 64 103 1.0 9.0 0.00 0.00 0.00 88 1008.1
20260506174239 64 81 1.0 3.0 0.00 0.00 0.00 88 1008.3
20260506173737 64 135 3.0 7.0 0.00 0.00 0.00 88 1008.4
20260506173233 64 107 1.0 3.0 0.00 0.00 0.00 88 1008.1
20260506172730 65 87 3.0 5.0 0.00 0.00 0.00 88 1008.5
20260506172227 65 103 0.0 2.0 0.00 0.00 0.00 87 1008.5
20260506171724 65 74 1.0 3.0 0.00 0.00 0.00 86 1008.4
20260506171222 65 108 1.0 2.0 0.00 0.00 0.00 86 1008.5
20260506170719 64 101 0.0 2.0 0.00 0.00 0.00 87 1008.9
20260506170215 64 94 1.0 2.0 0.00 0.00 0.00 87 1008.8
20260506165714 64 98 1.0 2.0 0.00 0.00 0.00 87 1008.9
20260506165210 64 105 1.0 5.0 0.00 0.00 0.00 88 1009.3
20260506164708 63 96 1.0 2.0 0.00 0.00 0.00 88 1009.3
20260506164205 63 101 1.0 7.0 0.00 0.00 0.00 88 1009.4
20260506163701 63 100 3.0 5.0 0.00 0.00 0.00 87 1009.6
20260506163156 64 112 0.0 5.0 0.00 0.00 0.00 86 1009.7
20260506162653 65 98 1.0 3.0 0.00 0.00 0.00 84 1009.5
20260506162150 65 112 1.0 5.0 0.00 0.00 0.00 84 1009.9
20260506161647 65 97 2.0 5.0 0.00 0.00 0.00 82 1009.8
20260506161144 66 87 2.0 3.0 0.00 0.00 0.00 81 1009.8
20260506160642 66 93 1.0 6.0 0.00 0.00 0.00 81 1009.5
20260506160139 67 96 2.0 3.0 0.00 0.00 0.00 79 1009.6
20260506155637 68 54 2.0 6.0 0.00 0.00 0.00 76 1009.6
20260506155134 68 92 3.0 5.0 0.00 0.00 0.00 75 1009.7
20260506153236 68 97 0.0 6.0 0.00 0.00 0.00 76 1009.6
20260506152733 68 107 0.0 3.0 0.00 0.00 0.00 75 1009.7
20260506152230 68 102 0.0 3.0 0.00 0.00 0.00 75 1009.5
20260506151729 68 67 3.0 3.0 0.00 0.00 0.00 75 1009.8
20260506151225 69 105 1.0 2.0 0.00 0.00 0.00 75 1009.5
20260506150722 68 73 1.0 3.0 0.00 0.00 0.00 75 1009.9
20260506150219 69 93 1.0 5.0 0.00 0.00 0.00 74 1009.8
20260506145716 69 99 1.0 3.0 0.00 0.00 0.00 73 1009.7
20260506145212 68 107 2.0 3.0 0.00 0.00 0.00 74 1009.7
20260506144710 68 100 1.0 1.0 0.00 0.00 0.00 76 1009.5
20260506144207 68 105 0.0 1.0 0.00 0.00 0.00 75 1009.6
20260506143704 69 90 0.0 2.0 0.00 0.00 0.00 73 1009.5
20260506143202 70 114 0.0 2.0 0.00 0.00 0.00 70 1009.8
20260506142700 71 104 1.0 1.0 0.00 0.00 0.00 69 1009.9
20260506142158 72 92 1.0 3.0 0.00 0.00 0.00 64 1009.6
20260506141655 72 27 2.0 7.0 0.00 0.00 0.00 63 1009.6
20260506141153 72 101 5.0 8.0 0.00 0.00 0.00 64 1009.5
20260506140651 72 83 3.0 9.0 0.00 0.00 0.00 65 1009.6
20260506140148 71 104 1.0 6.0 0.00 0.00 0.00 65 1009.7
20260506135645 71 111 3.0 8.0 0.00 0.00 0.00 65 1009.6
20260506135141 72 75 4.0 8.0 0.00 0.00 0.00 64 1009.8
20260506134637 71 135 7.0 13.0 0.00 0.00 0.00 65 1009.9
20260506134133 71 130 4.0 8.0 0.00 0.00 0.00 65 1010.1
20260506133631 71 91 3.0 3.0 0.00 0.00 0.00 67 1010.2
20260506133128 71 83 2.0 8.0 0.00 0.00 0.00 67 1010.2
20260506132625 70 118 4.0 7.0 0.00 0.00 0.00 68 1010.2
20260506132122 70 102 7.0 11.0 0.00 0.00 0.00 69 1010.3
20260506131619 69 151 2.0 11.0 0.00 0.00 0.00 70 1010.2
20260506131115 69 114 2.0 5.0 0.00 0.00 0.00 72 1010.1
20260506130613 68 101 2.0 9.0 0.00 0.00 0.00 72 1010.2
20260506130110 68 108 1.0 8.0 0.00 0.00 0.00 73 1010.2
20260506125608 67 115 4.0 11.0 0.00 0.00 0.00 74 1010.4
20260506125106 66 99 3.0 6.0 0.00 0.00 0.00 75 1010.1
20260506124603 66 91 4.0 6.0 0.00 0.00 0.00 76 1010.4
20260506124101 65 107 1.0 3.0 0.00 0.00 0.00 77 1010.4
20260506123558 65 103 3.0 6.0 0.00 0.00 0.00 77 1010.2
20260506123057 66 97 4.0 8.0 0.00 0.00 0.00 77 1010.1
20260506122553 65 109 1.0 5.0 0.00 0.00 0.00 77 1010.2
20260506122051 65 64 3.0 5.0 0.00 0.00 0.00 77 1010.5
20260506121548 65 118 2.0 6.0 0.00 0.00 0.00 77 1010.3
20260506121044 65 108 1.0 2.0 0.00 0.00 0.00 78 1010.3
20260506120543 65 77 3.0 6.0 0.00 0.00 0.00 77 1010.3
20260506120039 65 128 4.0 9.0 0.00 0.00 0.00 77 1010.4
20260506115537 65 108 1.0 9.0 0.00 0.00 0.00 77 1010.3
20260506115036 65 107 1.0 7.0 0.00 0.00 0.00 78 1010.5
20260506114533 64 160 6.0 9.0 0.00 0.00 0.00 79 1010.4
20260506114031 64 95 2.0 5.0 0.00 0.00 0.00 79 1010.8
20260506113529 64 100 2.0 5.0 0.00 0.00 0.00 80 1010.7
20260506113026 63 6 4.0 6.0 0.00 0.00 0.00 80 1010.6
20260506112522 63 111 2.0 5.0 0.00 0.00 0.00 81 1010.6
20260506112020 63 94 5.0 10.0 0.00 0.00 0.00 81 1010.7
20260506111518 63 78 5.0 7.0 0.00 0.00 0.00 81 1010.6
20260506111014 63 105 3.0 8.0 0.00 0.00 0.00 81 1010.6
20260506110512 62 110 2.0 10.0 0.00 0.00 0.00 82 1010.6
20260506110009 62 112 3.0 6.0 0.00 0.00 0.00 83 1010.4
20260506105505 62 95 2.0 9.0 0.00 0.00 0.00 83 1010.6
20260506105003 62 104 2.0 6.0 0.00 0.00 0.00 84 1010.5
20260506104500 62 66 3.0 5.0 0.00 0.00 0.00 84 1010.6
20260506103958 61 16 2.0 3.0 0.00 0.00 0.00 85 1010.8
20260506103455 61 129 7.0 9.0 0.00 0.00 0.00 85 1010.5
20260506102952 61 98 1.0 7.0 0.00 0.00 0.00 85 1010.4
20260506102450 61 117 1.0 3.0 0.00 0.00 0.00 85 1010.5
20260506101947 61 94 4.0 5.0 0.00 0.00 0.00 85 1010.6
20260506101443 61 101 3.0 8.0 0.00 0.00 0.00 85 1010.4
20260506100941 61 108 2.0 3.0 0.00 0.00 0.00 85 1010.4
20260506100439 61 82 1.0 3.0 0.00 0.00 0.00 85 1010.3
20260506095937 61 105 1.0 9.0 0.00 0.00 0.00 85 1010.3
20260506095435 61 103 2.0 3.0 0.00 0.00 0.00 85 1010.3
20260506094931 61 107 0.0 3.0 0.00 0.00 0.00 85 1010.4
20260506094430 61 115 2.0 3.0 0.00 0.00 0.00 85 1010.3
20260506093927 62 105 1.0 3.0 0.00 0.00 0.00 85 1010.4
20260506093425 62 89 3.0 6.0 0.00 0.00 0.00 85 1010.4
20260506092922 62 111 4.0 9.0 0.00 0.00 0.00 84 1010.5
20260506092420 62 72 6.0 11.0 0.00 0.00 0.00 85 1010.3
20260506091916 62 99 0.0 6.0 0.00 0.00 0.00 85 1010.5
20260506091415 62 113 2.0 3.0 0.00 0.00 0.00 85 1010.4
20260506090911 62 107 0.0 3.0 0.00 0.00 0.00 85 1010.4
20260506090409 62 50 5.0 9.0 0.00 0.00 0.00 85 1010.7
20260506085905 62 101 3.0 3.0 0.00 0.00 0.00 85 1010.5
20260506085402 62 117 3.0 6.0 0.00 0.00 0.00 85 1010.5
20260506084858 62 114 3.0 7.0 0.00 0.00 0.00 85 1010.7
20260506084355 62 161 4.0 7.0 0.00 0.00 0.00 84 1010.7
20260506083852 62 70 2.0 3.0 0.00 0.00 0.00 85 1010.8
20260506083349 62 128 5.0 6.0 0.00 0.00 0.00 84 1010.9
20260506082846 62 103 3.0 7.0 0.00 0.00 0.00 84 1010.6
20260506082343 62 107 2.0 7.0 0.00 0.00 0.00 84 1010.8
20260506081839 62 103 1.0 6.0 0.00 0.00 0.00 84 1010.7
20260506081338 62 109 2.0 3.0 0.00 0.00 0.00 84 1010.8
20260506080835 62 117 4.0 7.0 0.00 0.00 0.00 84 1010.6
20260506080331 62 152 8.0 10.0 0.00 0.00 0.00 84 1010.8
20260506073315 63 84 1.0 2.0 0.00 0.00 0.00 83 1011.2
20260506072812 63 133 3.0 5.0 0.00 0.00 0.00 83 1010.8
20260506072310 63 110 0.0 6.0 0.00 0.00 0.00 83 1010.9
20260506071807 63 95 2.0 2.0 0.00 0.00 0.00 83 1011.0
20260506071305 63 103 1.0 5.0 0.00 0.00 0.00 83 1010.9
20260506070802 63 115 1.0 2.0 0.00 0.00 0.00 82 1011.0
20260506070259 63 110 0.0 2.0 0.00 0.00 0.00 82 1011.0
20260506062236 63 104 3.0 8.0 0.00 0.00 0.00 81 1010.6
20260506061732 63 94 1.0 6.0 0.00 0.00 0.00 82 1010.9
20260506061229 63 110 0.0 3.0 0.00 0.00 0.00 82 1010.9
20260506060728 63 106 1.0 7.0 0.00 0.00 0.00 82 1010.8
20260506060224 63 100 1.0 5.0 0.00 0.00 0.00 81 1010.8
20260506051156 64 102 1.0 8.0 0.00 0.00 0.00 80 1011.3
20260506050655 64 104 1.0 7.0 0.00 0.00 0.00 79 1011.3
20260506050152 64 67 1.0 5.0 0.00 0.00 0.00 79 1011.2
20260506044643 64 112 0.0 3.0 0.00 0.00 0.00 78 1011.1
20260506044139 64 94 2.0 5.0 0.00 0.00 0.00 78 1011.6
20260506043637 64 108 1.0 8.0 0.00 0.00 0.00 77 1011.4
20260506043134 64 131 1.0 3.0 0.00 0.00 0.00 77 1011.6
20260506042633 65 109 0.0 2.0 0.00 0.00 0.00 77 1011.3
20260506042131 65 127 2.0 5.0 0.00 0.00 0.00 77 1011.5
20260506041629 65 118 2.0 5.0 0.00 0.00 0.00 76 1011.3
20260506041125 65 121 1.0 5.0 0.00 0.00 0.00 76 1011.2
20260506040623 65 46 2.0 5.0 0.00 0.00 0.00 76 1011.5
20260506040120 65 104 0.0 2.0 0.00 0.00 0.00 76 1011.3
20260506035617 65 81 1.0 3.0 0.00 0.00 0.00 75 1011.2
20260506035113 65 95 3.0 10.0 0.00 0.00 0.00 75 1011.6
20260506034611 65 120 3.0 7.0 0.00 0.00 0.00 75 1011.3
20260506034108 66 82 3.0 5.0 0.00 0.00 0.00 75 1011.5
20260506033605 66 95 1.0 5.0 0.00 0.00 0.00 74 1011.3
20260506033102 66 116 5.0 9.0 0.00 0.00 0.00 74 1011.3
20260506032559 66 106 3.0 9.0 0.00 0.00 0.00 74 1011.4
20260506032056 66 95 5.0 7.0 0.00 0.00 0.00 74 1011.3
20260506031553 66 332 3.0 10.0 0.00 0.00 0.00 74 1011.3
20260506031050 66 109 3.0 6.0 0.00 0.00 0.00 73 1011.4
20260506030548 66 115 1.0 7.0 0.00 0.00 0.00 73 1011.2
20260506030045 67 124 6.0 8.0 0.00 0.00 0.00 73 1011.4
20260506025542 67 43 4.0 6.0 0.00 0.00 0.00 73 1011.1
20260506025038 67 97 2.0 11.0 0.00 0.00 0.00 72 1011.4
20260506024535 67 83 1.0 6.0 0.00 0.00 0.00 73 1011.5
20260506024031 67 116 3.0 8.0 0.00 0.00 0.00 73 1011.6
20260506023528 67 93 2.0 5.0 0.00 0.00 0.00 72 1011.7
20260506023026 67 112 3.0 8.0 0.00 0.00 0.00 72 1011.6
20260506022523 67 105 3.0 20.0 0.00 0.00 0.00 72 1011.8
20260506022020 67 103 3.0 6.0 0.00 0.00 0.00 72 1011.6
20260506021518 67 101 1.0 6.0 0.00 0.00 0.00 71 1011.6
20260506021015 67 86 3.0 11.0 0.00 0.00 0.00 71 1011.4
20260506020512 67 105 1.0 11.0 0.00 0.00 0.00 71 1011.5
20260506020010 68 100 1.0 3.0 0.00 0.00 0.00 71 1011.5
20260506015507 68 119 4.0 5.0 0.00 0.00 0.00 70 1011.6
20260506015004 68 126 1.0 13.0 0.00 0.00 0.00 69 1011.5
20260506014501 68 116 3.0 10.0 0.00 0.00 0.00 69 1011.4
20260506013957 68 107 3.0 14.0 0.00 0.00 0.00 68 1011.2
20260506013455 68 109 1.0 6.0 0.00 0.00 0.00 68 1011.1
20260506012950 68 111 4.0 6.0 0.00 0.00 0.00 67 1011.0
20260506012447 68 91 1.0 6.0 0.00 0.00 0.00 66 1011.3
20260506011944 68 109 2.0 10.0 0.00 0.00 0.00 66 1011.0
20260506011442 68 55 10.0 14.0 0.00 0.00 0.00 66 1011.1
20260506010938 68 99 4.0 8.0 0.00 0.00 0.00 66 1011.1
20260506010438 68 107 1.0 13.0 0.00 0.00 0.00 65 1010.8
20260506005933 68 307 4.0 6.0 0.00 0.00 0.00 65 1010.9
20260506005432 68 100 3.0 5.0 0.00 0.00 0.00 65 1010.8
20260506004926 68 99 5.0 9.0 0.00 0.00 0.00 64 1010.9
20260506004425 68 103 5.0 13.0 0.00 0.00 0.00 64 1010.7
20260506003920 69 103 2.0 9.0 0.00 0.00 0.00 64 1010.6
20260506003417 69 132 3.0 6.0 0.00 0.00 0.00 64 1010.8
20260506002913 69 100 2.0 7.0 0.00 0.00 0.00 63 1010.8
20260506002409 69 98 1.0 5.0 0.00 0.00 0.00 63 1010.9
20260506001905 69 105 1.0 5.0 0.00 0.00 0.00 63 1010.5
20260506001402 70 43 4.0 8.0 0.00 0.00 0.00 61 1010.8
20260506000859 70 106 1.0 10.0 0.00 0.00 0.00 62 1010.7
20260506000357 70 110 2.0 6.0 0.00 0.00 0.00 61 1010.5
20260505235853 70 82 5.0 9.0 0.00 0.00 0.00 62 1010.6
20260505235351 70 112 3.0 13.0 0.00 0.00 0.00 61 1010.5
20260505234848 70 136 4.0 10.0 0.00 0.00 0.00 61 1010.5
20260505234346 70 92 2.0 6.0 0.00 0.00 0.00 61 1010.1
20260505233842 71 106 3.0 7.0 0.00 0.00 0.00 61 1010.2
20260505233340 71 114 2.0 5.0 0.00 0.00 0.00 61 1010.1
20260505232837 71 104 3.0 7.0 0.00 0.00 0.00 60 1009.9
20260505232335 71 122 3.0 8.0 0.00 0.00 0.00 59 1009.7
20260505231831 72 102 1.0 6.0 0.00 0.00 0.00 59 1009.9
20260505231329 72 109 1.0 6.0 0.00 0.00 0.00 58 1009.7
20260505230827 72 120 2.0 7.0 0.00 0.00 0.00 58 1009.6
20260505230324 72 100 2.0 6.0 0.00 0.00 0.00 58 1009.7
20260505225821 72 106 1.0 10.0 0.00 0.00 0.00 58 1009.7
20260505225318 72 66 3.0 5.0 0.00 0.00 0.00 58 1009.3
20260505224813 73 146 4.0 7.0 0.00 0.00 0.00 58 1009.3
20260505224311 73 92 3.0 7.0 0.00 0.00 0.00 58 1009.5
20260505223808 73 131 5.0 7.0 0.00 0.00 0.00 57 1009.3
20260505223305 73 46 6.0 9.0 0.00 0.00 0.00 57 1009.3
20260505222801 73 95 2.0 8.0 0.00 0.00 0.00 57 1009.4
20260505222257 73 94 3.0 7.0 0.00 0.00 0.00 58 1009.4
20260505221754 73 116 4.0 6.0 0.00 0.00 0.00 58 1009.2
20260505221251 73 20 3.0 6.0 0.00 0.00 0.00 57 1009.2
20260505220748 74 56 4.0 7.0 0.00 0.00 0.00 57 1009.1
20260505220245 74 102 2.0 6.0 0.00 0.00 0.00 57 1009.3
20260505215743 75 107 1.0 9.0 0.00 0.00 0.00 58 1009.0
20260505215241 75 99 2.0 5.0 0.00 0.00 0.00 58 1009.0
20260505214738 75 104 2.0 5.0 0.00 0.00 0.00 58 1009.3
20260505214235 75 105 1.0 3.0 0.00 0.00 0.00 58 1009.0
20260505213733 75 100 2.0 6.0 0.00 0.00 0.00 59 1009.0
20260505213230 75 358 3.0 9.0 0.00 0.00 0.00 59 1008.9
20260505212726 75 120 2.0 8.0 0.00 0.00 0.00 59 1008.9
20260505212223 75 11 4.0 9.0 0.00 0.00 0.00 59 1008.8
20260505211720 75 31 3.0 6.0 0.00 0.00 0.00 58 1008.8
20260505211218 75 57 3.0 9.0 0.00 0.00 0.00 59 1008.9
20260505210714 75 69 2.0 5.0 0.00 0.00 0.00 60 1008.9
20260505210211 75 99 3.0 9.0 0.00 0.00 0.00 60 1008.8
20260505205708 76 96 2.0 6.0 0.00 0.00 0.00 60 1008.7
20260505205206 75 92 2.0 8.0 0.00 0.00 0.00 60 1008.8
20260505204702 75 105 2.0 10.0 0.00 0.00 0.00 60 1008.8
20260505204200 75 99 1.0 6.0 0.00 0.00 0.00 59 1008.6
20260505203658 76 77 3.0 6.0 0.00 0.00 0.00 59 1008.8
20260505203154 75 123 5.0 7.0 0.00 0.00 0.00 59 1008.7
20260505202650 75 88 5.0 8.0 0.00 0.00 0.00 60 1008.8
20260505202146 75 105 2.0 5.0 0.00 0.00 0.00 60 1008.5
20260505201643 75 108 3.0 11.0 0.00 0.00 0.00 59 1008.8
20260505201141 75 76 1.0 7.0 0.00 0.00 0.00 60 1008.6
20260505200639 75 86 1.0 7.0 0.00 0.00 0.00 60 1008.7
20260505200135 76 60 5.0 8.0 0.00 0.00 0.00 58 1008.8
20260505195631 76 60 2.0 8.0 0.00 0.00 0.00 59 1008.9
20260505195129 76 137 5.0 7.0 0.00 0.00 0.00 57 1008.7
20260505194626 77 330 4.0 9.0 0.00 0.00 0.00 57 1008.9
20260505194121 78 110 4.0 9.0 0.00 0.00 0.00 56 1008.9
20260505193619 77 92 1.0 7.0 0.00 0.00 0.00 58 1009.0
20260505193116 77 114 4.0 8.0 0.00 0.00 0.00 57 1009.0
20260505192614 78 103 5.0 14.0 0.00 0.00 0.00 57 1009.1